Regional Weather Roundup
Issued by NWS

Home | Current Version | Previous Version | Graphics & Text | Print | Product List | Glossary On
Versions: 1 2 3 4 5 6 7 8 9 10 11 12 13 14 15 16 17 18 19 20 21 22 23 24 25 26 27 28 29 30 31 32 33 34 35 36 37 38 39 40 41 42 43 44 45 46 47 48 49 50
325
ASUS44 KLIX 201701
RWRLA
LOUISIANA WEATHER ROUNDUP
NATIONAL WEATHER SERVICE NEW ORLEANS LA
1200 PM CDT SAT SEP 20 2014

NOTE: "FAIR" INDICATES FEW OR NO CLOUDS BELOW 12,000 FEET WITH NO
      SIGNIFICANT WEATHER AND/OR OBSTRUCTIONS TO VISIBILITY.
      SKY/WX - SKY CONDITION AND SIGNIFICANT WEATHER.
      TMP - AIR TEMPERATURE.    DP   - DEWPOINT TEMPERATURE.
      RH  - RELATIVE HUMIDITY.  PRES - PRESSURE.
      HX  - HEAT INDEX.         WCI  - WIND CHILL INDEX.

*  THESE STATIONS ARE NOT NWS OR FAA STATIONS AND ARE NOT UNDER
   NWS QUALITY CONTROL.

LAZ040-048-061>063-065-066-069-201800-
SOUTHEAST LOUISIANA

CITY           SKY/WX    TMP DP  RH WIND       PRES   REMARKS
N.O. AUDUBON   NOT AVBL
N.O. INTL ARPT MOSUNNY   85  69  58 NE16      29.99F
N.O. LAKEFRONT SUNNY     84  70  62 E15       30.00S
N.O. DOWNTOWN* FAIR      82  68  61 NE5G17    30.00F
SLIDELL        SUNNY     85  66  53 E9        30.01S
BATON ROUGE    SUNNY     85  69  58 NE14      30.01F
BOOTHVILLE     MOSUNNY   84  74  71 E18G25    29.99R
BELLE CHASSE   MOSUNNY   84  70  62 NE17      29.99S
BOGALUSA*      FAIR      85  67  55 NE8       30.04S
GALLIANO*      NOT AVBL
NEW ROADS*     FAIR      86  68  55 NE8       30.01F
GONZALES*      FAIR      85  69  58 NE10G16   29.99F
HAMMOND*       NOT AVBL
HOUMA*         PTSUNNY   84  57  39 NE14      29.98S
PORT FOURCHON* MOSUNNY   86  73  66 E14G22    29.99F

$$

LAZ041-044-053-054-201800-
SOUTHWEST LOUISIANA

CITY           SKY/WX    TMP DP  RH WIND       PRES   REMARKS
LAKE CHARLES   MOSUNNY   86  72  62 E14       29.99S
LAFAYETTE      MOSUNNY   85  72  65 E10       29.99F
PATTERSON      PTSUNNY   88  73  62 NE15G21   30.00S HX  96
SALT POINT       N/A     89  73  59 E10       29.96F HX  97
NEW IBERIA     MOSUNNY   86  72  62 E13       29.99F
CHENAULT AIRPK PTSUNNY   84  72  65 E13       29.99F

$$

LAZ027-028-201800-
CENTRAL LOUISIANA

CITY           SKY/WX    TMP DP  RH WIND       PRES   REMARKS
FORT POLK      PTSUNNY   86  69  56 E7G18     30.02F
ALEXANDRIA INT MOSUNNY   86  69  56 NE9       30.01F
ALEXANDRIA     PTSUNNY   86  70  58 VRB6      30.03F

$$

LAZ001-002-201800-
NORTHWEST LOUISIANA

CITY           SKY/WX    TMP DP  RH WIND       PRES   REMARKS
SHREVEPORT     MOSUNNY   87  68  52 SE5       30.02F
BARKSDALE AFB  SUNNY     88  68  51 E7        30.03F
DTN SHREVEPORT MOSUNNY   87  68  52 VRB5      30.03F

$$

LAZ014-016-201800-
NORTHEAST LOUISIANA

CITY           SKY/WX    TMP DP  RH WIND       PRES   REMARKS
MONROE         SUNNY     88  69  53 CALM      30.04F
TALLULAH       SUNNY     87  68  52 E8        30.04F

$$




USA.gov is the U.S. government's official web portal to all federal, state and local government web resources and services.